GW7137 Weather Reports


time (UTC)temp
C
wind
direction
speed
KPH
gust
KPH
rain 1hr
cm
rain 24hr
cm
rain mn
cm
humidity
%
barometer
mb
20260504050410 12 306 8.0 8.0 0.00 0.00 0.00 52 1018.7
20260504045857 11 282 8.0 8.0 0.00 0.00 0.00 53 1018.7
20260504045345 11 282 9.7 9.7 0.00 0.00 0.00 55 1018.7
20260504044844 11 294 9.7 9.7 0.00 0.00 0.00 53 1018.8
20260504044332 11 282 8.0 8.0 0.00 0.00 0.00 55 1018.7
20260504043831 10 38 3.2 3.2 0.00 0.00 0.00 55 1018.7
20260504043319 10 90 3.2 3.2 0.00 0.00 0.00 57 1018.7
20260504042806 9 102 3.2 3.2 0.00 0.00 0.00 60 1018.6
20260504042306 9 192 0.0 0.0 0.00 0.00 0.00 61 1018.6
20260504041754 8 84 3.2 3.2 0.00 0.00 0.00 62 1018.5
20260504041253 8 319 0.0 0.0 0.00 0.00 0.00 64 1018.4
20260504040742 7 348 0.0 0.0 0.00 0.00 0.00 68 1018.3
20260504040241 7 234 3.2 3.2 0.00 0.00 0.00 69 1018.3
20260504035729 6 234 0.0 0.0 0.00 0.00 0.00 72 1018.3
20260504035229 7 150 0.0 0.0 0.00 0.00 0.00 70 1018.2
20260504034716 7 150 0.0 0.0 0.00 0.00 0.00 67 1018.2
20260504034216 8 216 3.2 3.2 0.00 0.00 0.00 63 1018.2
20260504033703 8 258 6.4 6.4 0.00 0.00 0.00 62 1018.1
20260504033151 7 276 9.7 9.7 0.00 0.00 0.00 63 1018.1
20260504032651 7 318 6.4 8.0 0.00 0.00 0.00 66 1018.1
20260504032139 7 330 9.7 9.7 0.00 0.00 0.00 66 1018.1
20260504031639 7 318 3.2 3.2 0.00 0.00 0.00 65 1018.1
20260504031127 7 324 3.2 3.2 0.00 0.00 0.00 67 1018.1
20260504030626 7 37 0.0 0.0 0.00 0.00 0.00 68 1018.1
20260504030114 7 300 3.2 3.2 0.00 0.00 0.00 70 1018.2
20260504025613 7 84 0.0 0.0 0.00 0.00 0.00 66 1018.1
20260504025101 7 306 3.2 3.2 0.00 0.00 0.00 64 1018.1
20260504024601 7 282 3.2 3.2 0.00 0.00 0.00 65 1018.0
20260504024048 6 264 3.2 3.2 0.00 0.00 0.00 68 1018.0
20260504023549 5 276 4.8 4.8 0.00 0.00 0.00 68 1018.0
20260504023036 6 318 3.2 3.2 0.00 0.00 0.00 73 1018.0
20260504022536 6 306 3.2 3.2 0.00 0.00 0.00 72 1018.0
20260504022023 6 312 0.0 0.0 0.00 0.00 0.00 72 1018.0
20260504021524 6 312 0.0 0.0 0.00 0.00 0.00 70 1018.0
20260504021011 6 72 3.2 3.2 0.00 0.00 0.00 68 1018.1
20260504020511 6 306 0.0 0.0 0.00 0.00 0.00 73 1018.1
20260504020011 5 306 3.2 3.2 0.00 0.00 0.00 71 1018.1
20260504015512 5 306 3.2 3.2 0.00 0.00 0.00 75 1018.1
20260504015011 5 306 3.2 3.2 0.00 0.00 0.00 78 1018.2
20260504014511 6 306 4.8 4.8 0.00 0.00 0.00 74 1018.2
20260504014010 7 294 3.2 3.2 0.00 0.00 0.00 66 1018.2
20260504013458 6 276 8.0 8.0 0.00 0.00 0.00 67 1018.2
20260504012958 6 300 6.4 6.4 0.00 0.00 0.00 71 1018.2
20260504012445 6 312 6.4 6.4 0.00 0.00 0.00 75 1018.2
20260504011946 5 318 6.4 6.4 0.00 0.00 0.00 77 1018.1
20260504011434 6 318 3.2 3.2 0.00 0.00 0.00 78 1018.1
20260504010933 5 318 6.4 6.4 0.00 0.00 0.00 78 1018.0
20260504010421 5 318 6.4 6.4 0.00 0.00 0.00 80 1018.0
20260504005920 5 312 6.4 6.4 0.00 0.00 0.00 79 1018.1
20260504005420 5 306 6.4 6.4 0.00 0.00 0.00 79 1018.0
20260504004920 5 318 3.2 3.2 0.00 0.00 0.00 79 1018.0
20260504004421 5 318 3.2 3.2 0.00 0.00 0.00 78 1018.0
20260504003920 6 318 4.8 4.8 0.00 0.00 0.00 76 1018.0
20260504003407 6 318 6.4 6.4 0.00 0.00 0.00 76 1018.0
20260504002907 5 318 3.2 3.2 0.00 0.00 0.00 78 1018.0
20260504002407 6 318 3.2 3.2 0.00 0.00 0.00 79 1017.9
20260504001907 6 312 4.8 4.8 0.00 0.00 0.00 77 1018.0
20260504001408 6 312 6.4 6.4 0.00 0.00 0.00 77 1018.0
20260504000907 6 312 8.0 8.0 0.00 0.00 0.00 76 1018.0
20260504000408 6 318 6.4 8.0 0.00 0.00 0.00 75 1017.9
20260503235855 6 312 6.4 6.4 0.00 0.00 0.00 75 1017.9
20260503235343 6 312 6.4 6.4 0.00 0.00 0.00 75 1017.9
20260503234842 6 312 4.8 4.8 0.00 0.00 0.00 75 1017.9
20260503234330 6 312 3.2 3.2 0.00 0.00 0.00 73 1017.9
20260503233830 6 312 3.2 3.2 0.00 0.00 0.00 71 1018.0
20260503233317 6 288 0.0 0.0 0.00 0.00 0.00 74 1017.9
20260503232818 7 288 3.2 3.2 0.00 0.00 0.00 73 1017.9
20260503232306 7 288 0.0 0.0 0.00 0.00 0.00 71 1018.0
20260503231804 6 306 3.2 3.2 0.00 0.00 0.00 74 1017.9
20260503231252 7 324 6.4 6.4 0.00 0.00 0.00 69 1017.8
20260503230752 7 324 6.4 8.0 0.00 0.00 0.00 67 1017.9
20260503230240 7 318 6.4 6.4 0.00 0.00 0.00 70 1017.9
20260503225740 7 312 6.4 6.4 0.00 0.00 0.00 70 1018.0
20260503225227 7 318 6.4 6.4 0.00 0.00 0.00 67 1018.0
20260503224727 7 294 6.4 6.4 0.00 0.00 0.00 66 1018.1
20260503224215 7 306 3.2 3.2 0.00 0.00 0.00 68 1018.1
20260503223715 7 318 4.8 4.8 0.00 0.00 0.00 70 1018.1
20260503223202 8 300 6.4 6.4 0.00 0.00 0.00 63 1018.1
20260503222702 8 318 3.2 3.2 0.00 0.00 0.00 63 1018.2
20260503222150 8 270 0.0 0.0 0.00 0.00 0.00 66 1018.2
20260503221650 8 270 0.0 0.0 0.00 0.00 0.00 63 1018.1
20260503221138 8 300 3.2 3.2 0.00 0.00 0.00 63 1018.0
20260503220638 8 300 6.4 6.4 0.00 0.00 0.00 61 1018.0
20260503220126 8 300 9.7 11.3 0.00 0.00 0.00 60 1018.1
20260503215625 8 288 6.4 8.0 0.00 0.00 0.00 62 1018.1
20260503215112 8 294 4.8 4.8 0.00 0.00 0.00 63 1018.1
20260503214612 8 276 3.2 3.2 0.00 0.00 0.00 60 1018.2
20260503214100 8 288 0.0 0.0 0.00 0.00 0.00 65 1018.1
20260503213608 8 300 4.8 4.8 0.00 0.00 0.00 63 1018.1
20260503213047 8 306 6.4 6.4 0.00 0.00 0.00 62 1018.1
20260503212547 8 306 6.4 6.4 0.00 0.00 0.00 62 1018.1
20260503212035 7 270 8.0 8.0 0.00 0.00 0.00 63 1018.2
20260503211536 6 312 8.0 8.0 0.00 0.00 0.00 73 1018.2
20260503211023 6 324 3.2 3.2 0.00 0.00 0.00 77 1018.1
20260503210523 6 324 3.2 3.2 0.00 0.00 0.00 77 1018.2
20260503210010 7 324 3.2 3.2 0.00 0.00 0.00 76 1018.2
20260503205458 7 318 3.2 3.2 0.00 1.45 0.00 72 1018.2
20260503204957 7 312 3.2 3.2 0.00 1.45 0.00 74 1018.2
20260503204445 7 312 6.4 6.4 0.00 1.45 0.00 72 1018.2
20260503203945 6 312 0.0 0.0 0.00 1.45 0.00 74 1018.3
20260503203445 7 312 4.8 4.8 0.00 1.45 0.00 73 1018.2
20260503202946 7 318 4.8 4.8 0.00 1.45 0.00 74 1018.2
20260503202445 6 312 6.4 6.4 0.00 1.45 0.00 75 1018.2
20260503201945 7 324 3.2 3.2 0.00 1.45 0.00 75 1018.2
20260503201444 7 347 3.2 3.2 0.00 1.45 0.00 72 1018.3
20260503200947 7 347 3.2 3.2 0.00 1.45 0.00 65 1018.4
20260503200433 7 318 3.2 3.2 0.00 1.45 0.00 69 1018.4
20260503195932 8 312 6.4 6.4 0.00 1.45 0.00 69 1018.4
20260503195432 8 312 4.8 4.8 0.00 1.45 0.00 67 1018.4
20260503194932 7 294 4.8 4.8 0.00 1.45 0.00 66 1018.4
20260503194433 7 318 8.0 8.0 0.00 1.45 0.00 73 1018.4
20260503193920 7 318 6.4 8.0 0.00 1.45 0.00 72 1018.4
20260503193419 7 318 3.2 3.2 0.00 1.45 0.00 76 1018.4
20260503192919 7 318 3.2 3.2 0.00 1.45 0.00 77 1018.5
20260503192419 7 318 4.8 4.8 0.00 1.45 0.00 72 1018.4
20260503191919 7 312 6.4 6.4 0.00 1.45 0.00 75 1018.4
20260503191420 7 312 4.8 4.8 0.00 1.45 0.00 77 1018.4
20260503190907 7 312 3.2 3.2 0.00 1.45 0.00 77 1018.5
20260503190406 7 312 3.2 3.2 0.00 1.45 0.00 74 1018.4
20260503185854 7 306 6.4 6.4 0.00 1.45 0.00 74 1018.4
20260503185354 8 318 4.8 4.8 0.00 1.45 0.00 72 1018.4
20260503184841 8 306 4.8 4.8 0.00 1.45 0.00 71 1018.3
20260503184341 8 348 3.2 3.2 0.00 1.45 0.00 75 1018.3
20260503183829 8 300 3.2 3.2 0.00 1.45 0.00 70 1018.3
20260503183329 8 276 3.2 3.2 0.00 1.45 0.00 73 1018.2
20260503182817 8 276 3.2 3.2 0.00 1.45 0.00 70 1018.2
20260503182316 8 276 0.0 0.0 0.00 1.45 0.00 66 1018.1
20260503181804 8 276 0.0 0.0 0.00 1.45 0.00 71 1018.1
20260503181305 8 276 0.0 0.0 0.00 1.45 0.00 69 1018.1
20260503180752 8 276 3.2 3.2 0.00 1.45 0.00 65 1018.1
20260503180251 8 336 3.2 3.2 0.00 1.45 0.00 66 1018.0
20260503175739 8 324 3.2 3.2 0.00 1.45 0.00 66 1017.9
20260503175240 8 312 0.0 0.0 0.00 1.45 0.00 67 1017.8
20260503174740 9 312 4.8 4.8 0.00 1.45 0.00 66 1017.7
20260503174239 9 306 3.2 3.2 0.00 1.45 0.00 65 1017.7
20260503173739 9 318 3.2 3.2 0.00 1.45 0.00 64 1017.7
20260503173239 9 306 6.4 6.4 0.00 1.45 0.00 65 1017.6
20260503172726 10 318 3.2 3.2 0.00 1.45 0.00 63 1017.5
20260503172225 10 312 6.4 6.4 0.00 1.45 0.00 65 1017.5
20260503171714 10 312 6.4 6.4 0.00 1.45 0.00 64 1017.4
20260503171203 10 330 3.2 3.2 0.00 1.45 0.00 57 1017.2
20260503170650 11 318 4.8 4.8 0.00 1.45 0.00 59 1017.2
20260503170148 11 330 3.2 3.2 0.00 1.45 0.00 59 1017.2
20260503150942 15 288 4.8 4.8 0.00 1.45 0.00 42 1017.1
20260503150444 15 198 8.0 9.7 0.00 1.45 0.00 41 1017.1
20260503131249 13 252 3.2 3.2 0.00 1.45 0.00 48 1017.7
20260503130750 13 162 8.0 8.0 0.00 1.45 0.00 51 1017.7
20260503130249 13 216 9.7 9.7 0.00 1.45 0.00 51 1017.8
20260503120146 12 234 9.7 9.7 0.00 1.45 0.00 59 1018.1
20260503110544 11 303 14.5 17.7 0.00 1.45 0.00 62 1018.3
20260503090146 7 282 6.4 8.0 0.23 1.42 0.00 88 1018.6
20260503081234 7 282 6.4 8.0 0.30 1.30 0.00 88 1018.7
20260503080734 6 282 8.0 8.0 0.53 1.27 0.00 88 1018.7
20260503080222 7 312 9.7 11.3 0.53 1.27 0.00 89 1018.8
20260503072645 7 294 14.5 14.5 0.99 0.89 0.00 86 1018.3
20260503072132 7 282 12.9 12.9 1.40 0.79 0.00 87 1018.4
20260503071631 7 306 8.0 8.0 0.53 0.69 0.00 87 1018.1
20260503071119 7 288 6.4 8.0 0.46 0.66 0.00 85 1017.9
20260503070619 7 282 11.3 11.3 0.48 0.61 0.00 85 1017.7
20260503070107 7 282 12.9 12.9 0.53 0.53 0.00 85 1017.6
20260503055004 10 288 0.0 0.0 0.00 0.33 0.00 73 1016.7
20260503054451 10 174 3.2 3.2 0.00 0.33 0.00 73 1016.6
20260503053952 10 204 3.2 3.2 0.00 0.33 0.00 74 1016.6
20260503053452 10 132 3.2 3.2 0.00 0.33 0.00 78 1016.6
20260503052952 10 126 3.2 3.2 0.00 0.33 0.00 80 1016.6
20260503052451 10 162 3.2 3.2 0.00 0.33 0.00 79 1016.6
20260503051951 8 150 0.0 0.0 0.00 0.33 0.00 82 1016.5